Trapani, Italy

4:22 PM CEST on June 27, 2017 (GMT +0200)
Birgi Mil

Weather History for LICT - October, 2013

Change the Weather History Date:

Thursday, October 3, 2013

  Actual Average Record
Temperature  
Mean Temperature 74 °F -  
Max Temperature 85 °F 74 °F 85 °F (2013)
Min Temperature 63 °F 59 °F 57 °F (2004)
Cooling Degree Days 9    
Growing Degree Days 24 (Base 50)    
Moisture  
Dew Point 63 °F    
Average Humidity 73    
Maximum Humidity 94    
Minimum Humidity 32    
Precipitation  
Precipitation 0.00 in 0.08 in - ()
Sea Level Pressure  
Sea Level Pressure 30.06 in    
Wind  
Wind Speed 5 mph ()    
Max Wind Speed 16 mph    
Max Gust Speed -    
Visibility 7.3 miles    
Events      
Averages and records for this station are not official NWS values.
T = Trace of Precipitation, MM = Missing Value Source: Averaged Metar Reports

Daily Weather History Graph

Daily Weather History Graph

Search for Another Location

Airport or City:

Trip Planner

Search our weather history database for the weather conditions in past years. The results will help you decide how hot, cold, wet, or windy it might be!

Date:

Astronomy

Oct. 03, 2013 Rise Set
Actual Time 7:07 AM CEST 6:50 PM CEST
Civil Twilight 6:41 AM CEST 7:16 PM CEST
Nautical Twilight 6:10 AM CEST 7:46 PM CEST
Astronomical Twilight 5:40 AM CEST 8:17 PM CEST
Moon 5:24 AM CEST (10/3) 5:48 PM CEST (10/3)
Length of Visible Light 12h 35m
Length of Day
11h 42m
Waning Crescent, 3% of the Moon is Illuminated
Oct 3
Waning Crescent
Oct 5
New
Oct 12
First Quarter
Oct 19
Full
Oct 27
Last Quarter

Hourly Weather History & Observations

Time (CEST) Temp. Heat Index Dew Point Humidity Pressure Visibility Wind Dir Wind Speed Gust Speed Precip Events Conditions
12:55 AM 66.2 °F - 62.6 °F 88% 29.98 in - Calm Calm - N/A   Clear
1:55 AM 66.2 °F - 62.6 °F 88% 30.01 in - Calm Calm - N/A   Clear
2:00 AM 65 °F - 62 °F 88% 30.01 in 9 mi Calm Calm - -  
2:55 AM 64.4 °F - 60.8 °F 88% 29.98 in - Calm Calm - N/A   Clear
3:55 AM 64.4 °F - 60.8 °F 88% 29.98 in - Calm Calm - N/A   Clear
4:55 AM 64.4 °F - 60.8 °F 88% 30.01 in - Calm Calm - N/A   Clear
5:55 AM 64.4 °F - 62.6 °F 94% 30.01 in - SSE 3.5 mph - N/A   Clear
6:55 AM 64.4 °F - 60.8 °F 88% 30.04 in - Calm Calm - N/A   Clear
7:55 AM 64.4 °F - 62.6 °F 94% 30.04 in 6.2 mi East 1.2 mph - N/A   Partly Cloudy
8:00 AM 65 °F - 62 °F 86% 30.04 in 12 mi East 1.2 mph - -   Scattered Clouds
8:55 AM 71.6 °F - 62.6 °F 73% 30.04 in 6.2 mi East 2.3 mph - N/A   Partly Cloudy
9:55 AM 77.0 °F - 60.8 °F 57% 30.06 in 6.2 mi SE 8.1 mph - N/A   Partly Cloudy
10:55 AM 80.6 °F 81.1 °F 59.0 °F 48% 30.06 in 6.2 mi SSE 6.9 mph - N/A   Partly Cloudy
11:55 AM 84.2 °F 83.5 °F 57.2 °F 40% 30.06 in 6.2 mi SSE 11.5 mph - N/A   Partly Cloudy
12:55 PM 84.2 °F 83.8 °F 59.0 °F 42% 30.09 in 6.2 mi South 13.8 mph - N/A   Scattered Clouds
1:55 PM 84.2 °F 83.8 °F 59.0 °F 42% 30.09 in 6.2 mi SE 13.8 mph - N/A   Scattered Clouds
2:00 PM 85 °F - 60 °F 32% 30.09 in 16 mi SE 13.8 mph - -   Partly Cloudy
2:55 PM 84.2 °F 84.4 °F 60.8 °F 45% 30.06 in 6.2 mi SSE 16.1 mph - N/A   Scattered Clouds
3:55 PM 82.4 °F 83.4 °F 62.6 °F 51% 30.06 in 6.2 mi SSE 13.8 mph - N/A   Scattered Clouds
4:55 PM 82.4 °F 84.6 °F 66.2 °F 58% 30.06 in 6.2 mi SSE 15.0 mph - N/A   Scattered Clouds
5:55 PM 78.8 °F - 68.0 °F 69% 30.09 in 6.2 mi SSE 15.0 mph - N/A   Scattered Clouds
6:55 PM 75.2 °F - 68.0 °F 78% 30.09 in 6.2 mi SE 11.5 mph - N/A   Partly Cloudy
7:55 PM 73.4 °F - 71.6 °F 94% 30.09 in 6.2 mi SE 12.7 mph - N/A   Partly Cloudy
8:00 PM 74 °F - 71 °F 88% 30.12 in 11 mi SE 12.7 mph - -   Scattered Clouds
8:55 PM 73.4 °F - 69.8 °F 88% 30.09 in 6.2 mi SE 8.1 mph - N/A   Partly Cloudy
9:55 PM 73.4 °F - 68.0 °F 83% 30.15 in 6.2 mi SE 12.7 mph - N/A   Partly Cloudy
10:55 PM 71.6 °F - 68.0 °F 88% 30.15 in 6.2 mi SE 11.5 mph - N/A   Partly Cloudy
11:55 PM 71.6 °F - 66.2 °F 83% 30.15 in 6.2 mi SE 10.4 mph - N/A   Partly Cloudy